West Bend, WI

2:35 PM CST on January 24, 2017 (GMT -0600)
West Bend Municipal

Weather History for KETB - November, 2014

Change the Weather History Date:

Tuesday, November 4, 2014

  Actual Average Record
Temperature  
Mean Temperature 48 °F -  
Max Temperature 55 °F 47 °F 73 °F (2008)
Min Temperature 42 °F 32 °F 10 °F (1951)
Degree Days  
Heating Degree Days 16    
Moisture  
Dew Point 40 °F    
Average Humidity 73    
Maximum Humidity 94    
Minimum Humidity 57    
Precipitation  
Precipitation 0.14 in - - ()
Sea Level Pressure  
Sea Level Pressure 29.86 in    
Wind  
Wind Speed 12 mph (WSW)    
Max Wind Speed 22 mph    
Max Gust Speed 31 mph    
Visibility 10 miles    
Events Rain    
Averages and records for this station are not official NWS values.
T = Trace of Precipitation, MM = Missing Value Source: NWS Daily Summary

Daily Weather History Graph

Daily Weather History Graph

Search for Another Location

Airport or City:

Trip Planner

Search our weather history database for the weather conditions in past years. The results will help you decide how hot, cold, wet, or windy it might be!

Date:

Astronomy

Nov. 04, 2014 Rise Set
Actual Time 6:31 AM CST 4:39 PM CST
Civil Twilight 6:01 AM CST 5:09 PM CST
Nautical Twilight 5:27 AM CST 5:43 PM CST
Astronomical Twilight 4:54 AM CST 6:17 PM CST
Moon 3:30 PM CST (11/4) 3:44 AM CST (11/4)
Length of Visible Light 11h 08m
Length of Day
10h 08m
Waxing Gibbous, 94% of the Moon is Illuminated
Nov 4
Waxing Gibbous
Nov 6
Full
Nov 14
Last Quarter
Nov 22
New
Nov 29
First Quarter

Hourly Weather History & Observations

Time (CST) Temp. Windchill Dew Point Humidity Pressure Visibility Wind Dir Wind Speed Gust Speed Precip Events Conditions
12:15 AM 53.6 °F - 50.0 °F 88% 29.83 in 7.0 mi SSW 10.4 mph - 0.03 in Rain Rain
12:35 AM 53.6 °F - 50.0 °F 88% 29.82 in 10.0 mi SSW 5.8 mph - 0.07 in Rain Rain
12:55 AM 53.6 °F - 50.0 °F 88% 29.81 in 10.0 mi SSW 9.2 mph - 0.08 in Rain Rain
1:15 AM 53.6 °F - 51.8 °F 94% 29.80 in 10.0 mi SSW 10.4 mph 16.1 mph 0.01 in Rain Light Rain
1:35 AM 55.4 °F - 51.8 °F 88% 29.80 in 10.0 mi SSW 11.5 mph 18.4 mph 0.03 in Rain Light Rain
1:55 AM 55.4 °F - 51.8 °F 88% 29.79 in 10.0 mi SSW 12.7 mph 18.4 mph 0.04 in Rain Light Rain
2:15 AM 55.4 °F - 51.8 °F 88% 29.78 in 10.0 mi SSW 15.0 mph - N/A   Overcast
2:35 AM 55.4 °F - 51.8 °F 88% 29.78 in 10.0 mi SSW 15.0 mph 24.2 mph N/A   Overcast
2:55 AM 55.4 °F - 51.8 °F 88% 29.77 in 10.0 mi SW 13.8 mph 20.7 mph N/A   Overcast
3:15 AM 55.4 °F - 51.8 °F 88% 29.77 in 10.0 mi SW 16.1 mph 24.2 mph N/A   Overcast
3:35 AM 55.4 °F - 51.8 °F 88% 29.77 in 7.0 mi SW 15.0 mph 20.7 mph N/A   Overcast
3:55 AM 55.4 °F - 51.8 °F 88% 29.78 in 4.0 mi SSW 12.7 mph 19.6 mph N/A Rain Rain
4:15 AM 55.4 °F - 51.8 °F 88% 29.78 in 4.0 mi SSW 11.5 mph - 0.01 in Rain Rain
4:55 AM 55.4 °F - 51.8 °F 88% 29.77 in 10.0 mi SSW 9.2 mph - 0.02 in   Overcast
5:15 AM 55.4 °F - 53.6 °F 94% 29.77 in 10.0 mi SSW 10.4 mph - N/A   Overcast
5:35 AM 55.4 °F - 51.8 °F 88% 29.75 in 10.0 mi SSW 8.1 mph - N/A   Overcast
5:55 AM 55.4 °F - 51.8 °F 88% 29.76 in 10.0 mi SW 10.4 mph - N/A   Overcast
6:15 AM 55.4 °F - 51.8 °F 88% 29.75 in 10.0 mi SSW 11.5 mph - N/A   Overcast
6:35 AM 55.4 °F - 51.8 °F 88% 29.75 in 10.0 mi SSW 12.7 mph - N/A   Overcast
6:55 AM 55.4 °F - 51.8 °F 88% 29.76 in 10.0 mi SW 10.4 mph - N/A   Overcast
7:15 AM 55.4 °F - 51.8 °F 88% 29.78 in 10.0 mi West 17.3 mph - N/A   Overcast
7:35 AM 51.8 °F - 46.4 °F 82% 29.81 in 10.0 mi West 15.0 mph 26.5 mph N/A   Overcast
7:55 AM 48.2 °F - 42.8 °F 82% 29.82 in 10.0 mi West 17.3 mph 26.5 mph N/A   Overcast
8:15 AM 48.2 °F - 41.0 °F 76% 29.83 in 10.0 mi West 20.7 mph 28.8 mph N/A   Overcast
8:35 AM 46.4 °F 39.0 °F 41.0 °F 81% 29.82 in 10.0 mi WNW 19.6 mph 23.0 mph N/A   Overcast
8:55 AM 46.4 °F 40.4 °F 41.0 °F 81% 29.82 in 10.0 mi West 13.8 mph 17.3 mph N/A   Overcast
9:15 AM 46.4 °F 41.1 °F 41.0 °F 81% 29.83 in 10.0 mi West 11.5 mph 24.2 mph N/A   Overcast
9:35 AM 48.2 °F - 41.0 °F 76% 29.84 in 10.0 mi West 15.0 mph 21.9 mph N/A   Overcast
9:55 AM 46.4 °F 39.0 °F 39.2 °F 76% 29.85 in 10.0 mi West 19.6 mph 28.8 mph N/A   Overcast
10:15 AM 46.4 °F 38.5 °F 37.4 °F 71% 29.86 in 10.0 mi West 21.9 mph 29.9 mph N/A   Overcast
10:35 AM 44.6 °F 36.4 °F 35.6 °F 71% 29.87 in 10.0 mi West 20.7 mph 28.8 mph N/A   Overcast
10:55 AM 44.6 °F 36.1 °F 35.6 °F 71% 29.87 in 10.0 mi West 21.9 mph 31.1 mph N/A   Overcast
11:15 AM 44.6 °F 38.1 °F 35.6 °F 71% 29.87 in 10.0 mi West 13.8 mph 28.8 mph N/A   Overcast
11:35 AM 44.6 °F 37.2 °F 35.6 °F 71% 29.87 in 10.0 mi West 17.3 mph 20.7 mph N/A   Overcast
11:55 AM 44.6 °F 36.9 °F 33.8 °F 66% 29.87 in 10.0 mi West 18.4 mph 26.5 mph N/A   Overcast
12:15 PM 44.6 °F 38.4 °F 32.0 °F 61% 29.87 in 10.0 mi West 12.7 mph 26.5 mph N/A   Overcast
12:55 PM 44.6 °F 37.8 °F 33.8 °F 66% 29.87 in 10.0 mi West 15.0 mph 19.6 mph N/A   Overcast
1:15 PM 46.4 °F 40.4 °F 33.8 °F 62% 29.88 in 10.0 mi West 13.8 mph 25.3 mph N/A   Overcast
1:35 PM 46.4 °F 38.7 °F 32.0 °F 57% 29.88 in 10.0 mi West 20.7 mph 25.3 mph N/A   Mostly Cloudy
1:55 PM 46.4 °F 39.2 °F 32.0 °F 57% 29.88 in 10.0 mi West 18.4 mph 24.2 mph N/A   Scattered Clouds
2:15 PM 46.4 °F 39.8 °F 32.0 °F 57% 29.89 in 10.0 mi West 16.1 mph 20.7 mph N/A   Scattered Clouds
2:35 PM 46.4 °F 40.7 °F 32.0 °F 57% 29.89 in 10.0 mi West 12.7 mph 24.2 mph N/A   Scattered Clouds
2:55 PM 46.4 °F 40.4 °F 32.0 °F 57% 29.89 in 10.0 mi West 13.8 mph 17.3 mph N/A   Scattered Clouds
3:15 PM 46.4 °F 41.9 °F 32.0 °F 57% 29.90 in 10.0 mi WSW 9.2 mph - N/A   Scattered Clouds
3:35 PM 46.4 °F 41.5 °F 32.0 °F 57% 29.91 in 10.0 mi WSW 10.4 mph - N/A   Clear
3:55 PM 46.4 °F 41.5 °F 32.0 °F 57% 29.91 in 10.0 mi WSW 10.4 mph - N/A   Clear
4:15 PM 46.4 °F 42.9 °F 32.0 °F 57% 29.91 in 10.0 mi SW 6.9 mph - N/A   Clear
4:35 PM 44.6 °F 40.7 °F 32.0 °F 61% 29.91 in 10.0 mi SW 6.9 mph - N/A   Clear
4:55 PM 44.6 °F 40.7 °F 32.0 °F 61% 29.92 in 10.0 mi SW 6.9 mph - N/A   Clear
5:15 PM 44.6 °F 41.4 °F 32.0 °F 61% 29.92 in 10.0 mi WSW 5.8 mph - N/A   Clear
5:35 PM 44.6 °F 42.2 °F 32.0 °F 61% 29.92 in 10.0 mi SW 4.6 mph - N/A   Scattered Clouds
5:55 PM 42.8 °F 39.3 °F 32.0 °F 66% 29.93 in 10.0 mi SSW 5.8 mph - N/A   Scattered Clouds
6:15 PM 42.8 °F 39.3 °F 32.0 °F 66% 29.93 in 10.0 mi SSW 5.8 mph - N/A   Clear
6:35 PM 42.8 °F 39.3 °F 32.0 °F 66% 29.94 in 10.0 mi SSW 5.8 mph - N/A   Clear
6:55 PM 42.8 °F 38.0 °F 32.0 °F 66% 29.93 in 10.0 mi SW 8.1 mph - N/A   Clear
7:15 PM 44.6 °F 38.4 °F 32.0 °F 61% 29.92 in 10.0 mi SW 12.7 mph - N/A   Clear
7:35 PM 44.6 °F 39.7 °F 32.0 °F 61% 29.92 in 10.0 mi SW 9.2 mph 17.3 mph N/A   Clear
7:55 PM 42.8 °F 37.0 °F 33.8 °F 70% 29.91 in 10.0 mi SW 10.4 mph 17.3 mph N/A   Clear
8:15 PM 42.8 °F 37.0 °F 33.8 °F 70% 29.91 in 10.0 mi SSW 10.4 mph - N/A   Scattered Clouds
8:35 PM 42.8 °F 36.2 °F 33.8 °F 70% 29.91 in 10.0 mi SW 12.7 mph - N/A   Clear
8:55 PM 44.6 °F 38.8 °F 33.8 °F 66% 29.92 in 10.0 mi WSW 11.5 mph 23.0 mph N/A   Clear
9:15 PM 42.8 °F 36.6 °F 33.8 °F 70% 29.92 in 10.0 mi WSW 11.5 mph 16.1 mph N/A   Clear
9:35 PM 44.6 °F 38.4 °F 33.8 °F 66% 29.92 in 10.0 mi WSW 12.7 mph 23.0 mph N/A   Clear
9:55 PM 44.6 °F 38.4 °F 32.0 °F 61% 29.92 in 10.0 mi WSW 12.7 mph 21.9 mph N/A   Clear
10:15 PM 44.6 °F 38.4 °F 32.0 °F 61% 29.93 in 10.0 mi WSW 12.7 mph 21.9 mph N/A   Clear
10:35 PM 44.6 °F 37.8 °F 32.0 °F 61% 29.94 in 10.0 mi WSW 15.0 mph 23.0 mph N/A   Clear
10:55 PM 42.8 °F 36.2 °F 32.0 °F 66% 29.95 in 10.0 mi West 12.7 mph 21.9 mph N/A   Clear
11:15 PM 42.8 °F 37.0 °F 32.0 °F 66% 29.96 in 10.0 mi West 10.4 mph 18.4 mph N/A   Clear
11:35 PM 42.8 °F 37.0 °F 32.0 °F 66% 29.97 in 10.0 mi West 10.4 mph 18.4 mph N/A   Clear
11:55 PM 42.8 °F 37.0 °F 32.0 °F 66% 29.98 in 10.0 mi West 10.4 mph 18.4 mph N/A   Clear